Simultaneous Nadir Overpasses (SNOs) Predictions

Prediction of SNOs over PacNW region [( 10.00, 139.50) to ( 22.70, 165.60)] between AQUA and NPP Satellites:

Table of predicted SNOs over PacNW region for the next 30.0 days since TLE Epoch: 5/13/2023
Index Date (AQUA) Time (AQUA) AQUA Lat,Lon Date (NPP) Time (NPP) NPP Lat,Lon Distance(km) Time Diff (sec)
1 05/23/2023 15:51:18 21.76, 152.64 05/23/2023 15:51:03 22.69, 147.67 521.91 15
2 05/26/2023 04:10:32 22.69, 141.08 05/26/2023 04:07:02 22.33, 136.44 478.35 210
3 06/05/2023 15:09:08 17.40, 162.61 06/05/2023 15:07:41 18.33, 157.72 527.79 87
